Tracking 18851 objects as of 24-Nov-2017
HD Live streaming from Space Station
objects crossing your sky now

FENGYUN 1C DEB

Track FENGYUN 1C DEB now!
10-day predictions


NORAD ID: 30578
Int'l Code: 1999-025ALU
Perigee: 795.9 km
Apogee: 877.0 km
Inclination: 99.0 °
Period: 101.5 minutes
Semi major axis: 7207 km
RCS: 0.047 m2 (small)
Launch date: May 10, 1999
Source: People's Republic of China (PRC)
Launch site: Taiyaun Space Center, China (TSC)

Note: This is SATELLITE DEBRIS
aabbcc
Your satellite tracking list
Your tracking list is empty




NASA's NSSDC Master Catalog

Two Line Element Set (TLE):
1 30578U 99025ALU 17328.13223104 +.00001891 +00000-0 +91671-3 0  9991
2 30578 099.0263 022.4262 0056279 240.4753 172.5088 14.18831449555308
Source of the keplerian elements: AFSPC